CZ-6A DEB

Satellite information

Favourite Embed

Satellite Type and Status

DEBRISIN ORBIT

Key statistics

Satellite CZ-6A DEB at a glance.

Uptime

393

Days in orbit

Revolutions

≈ 14.2

Per day

Orbit

LEO

Low Earth Orbit

Inclination

89.0

Latest

Satellite identification and parameters

Extended collection of information and parameters for CZ-6A DEB.

Object identification

Identified? True

Debris? True

Object name: CZ-6A DEB

International designator: 2024-140ABX

Object number (NORAD): 61807

Object ID (CCSDS): 61807

Country: PEOPLES REPUBLIC OF CHINA (PRC)

Current information (Y/N): Y

RCS size: SMALL

Orbital parameters

Period: 101.217 minutes

Inclination: 88.9869 deg

SMA: 7194.443 km

Apoapsis: 842.207 km

Periapsis: 790.409 km

RAAN: 306.2823 deg

Eccentricy: 0.00359987

Argument of periapsis: 29.3115 deg

Mean anomaly: 331.0086 deg

Mean motion: 14.22679279 rev/day

Mean motion (dot): 0.00002135 rev/day2

B* drag term: 0.00094202219 1/REarth

Two-line elements (TLE)

Creation date: Sept. 2, 2025, 10:20 a.m.

Reference frame: TEME

Reference center: EARTH

Epoch: Sept. 2, 2025, 3:32 a.m. UTC

TLE line 0: 0 CZ-6A DEB

TLE line 1: 1 61807U 24140ABX 25245.14776574 .00002135 00000-0 94202-3 0 9993

TLE line 2: 2 61807 88.9869 306.2823 0035999 29.3115 331.0086 14.22679279 49432

Live tracking on map

Real-time ground track for satellite CZ-6A DEB.

In-orbit conjunctions

A list of the most updated potential collisions computed for object CZ-6A DEB.

Target Orbit TCA Probability of collision Miss distance Type
NOAA 16 DEB SSO 2025-02-27 00:35:51 0.0001322383 498.0 (m) DEBRIS
NOAA 16 DEB SSO 2025-01-24 20:50:40 0.0002485012 848.0 (m) DEBRIS
DMSP 5D-2 F11 DEB SSO 2024-11-25 15:43:27 0.0001932285 841.0 (m) DEBRIS

Associated space launch

18 Low Earth Orbit communication satellites with Ku, Q and V band payloads for the G60 constellation operated by Shanghai Spacecom Satellite Technology (SSST) with funding backed by the Shanghai local government. Initial constellation will consist of 1296 satellites by 2027 with long term plans to expand it to 12000 satellites.

CZ-6A DEB was lifted into orbit during the mission ‘Long March 6A | G60 Polar Group 01’, on board a Long March 6A space rocket.

The launch took place on Aug. 6, 2024, 6:42 a.m. from Launch Complex 9A.

For more information about the launch, click the button.

Launch to space Long March 6A | G60 Polar Group 01
Long March 6A | G60 Polar Group 01

Agency: N/A

Status: Launch Successful

Launch date: Aug. 6, 2024, 6:42 a.m. UTC

Rocket: Long March 6A

Launch pad: Launch Complex 9A

Location: Taiyuan Satellite Launch Center, People's Republic of China

...

Latest news about this satellite

News about space launch
Brightness of first Chinese broadband constellation satellites alarms astronomers

The first satellites of a Chinese broadband constellation are significantly brighter than those of Western systems, posing a new challenge for astronomers.

News about space launch
Chinese rocket stage breaks up into cloud of more than 700 pieces of space debris

HELSINKI — A Chinese Long March 6A rocket’s upper stage has fragmented into a cloud of over 700 pieces of space debris, adding to concerns about long-term orbital safety. China […]

News about space launch
China's Thousand Sails Megaconstellation Kicks Off with Dangerous Debris Field

China's Thousand Sails Megaconstellation Kicks Off with Dangerous Debris Field


Newsletter sign-up

Weekly statistics, charts and insights to help you stay on top of the space industry.